This demonstration page uses our WeatherBlox Daily Observations layout. Learn more.

Left ArrowRight Arrow

44.31136, -96.79839

Hourly Observations for August 2, 2017

Temp ( °F °C ) Dew Point ( °F °C ) Humidity (%) Winds ( mph kmh ) Pressure ( in mb ) Visibility ( mi km ) Precip ( " mm )
12:56 am 00:56 Clear 62 16.7 59 15 90 90 WNW 3 6 30.16 1022 N/A 0.00 0.00
1:56 am 01:56 Clear 61 16.1 58 14.4 90 90 NNW 5 7 30.17 1022 N/A 0.00 0.00
2:56 am 02:56 Clear 61 16.1 58 14.4 90 90 NNW 6 9 30.17 1022 N/A 0.00 0.00
3:56 am 03:56 Clear 60 15.6 57 13.9 90 90 N 5 7 30.17 1022 N/A 0.00 0.00
4:56 am 04:56 Clear 58 14.4 56 13.3 93 93 N 7 11 30.16 1022 N/A 0.00 0.00
5:56 am 05:56 Clear 60 15.6 55 12.8 84 84 NNE 6 9 30.17 1022 N/A 0.00 0.00
6:56 am 06:56 Sunny 59 15 56 13.3 90 90 NNW 3 6 30.18 1022 N/A 0.00 0.00
7:56 am 07:56 Sunny 61 16.1 57 13.9 87 87 Calm 30.18 1022 N/A 0.00 0.00
8:56 am 08:56 Mostly Sunny 66 18.9 59 15 78 78 Calm 30.19 1022 N/A 0.00 0.00
9:56 am 09:56 Sunny 70 21.1 60 15.6 71 71 NNE 5 7 30.18 1022 N/A 0.00 0.00
10:56 am 10:56 Sunny 73 22.8 58 14.4 59 59 NE 6 9 30.17 1022 N/A 0.00 0.00
11:56 am 11:56 Sunny 75 23.9 58 14.4 55 55 NE 6 9 30.16 1022 N/A 0.00 0.00
12:56 pm 12:56 Mostly Sunny 75 23.9 57 13.9 54 54 ENE 3 6 30.16 1021 N/A 0.00 0.00
1:56 pm 13:56 Sunny 77 25 56 13.3 48 48 E 9 15 30.13 1020 N/A 0.00 0.00
2:56 pm 14:56 Sunny 75 23.9 57 13.9 54 54 ESE 8 13 30.11 1020 N/A 0.00 0.00
3:56 pm 15:56 Sunny 74 23.3 57 13.9 56 56 E 7 11 30.12 1020 N/A 0.00 0.00
4:56 pm 16:56 Mostly Cloudy 74 23.3 57 13.9 56 56 ESE 3 6 30.12 1020 N/A 0.00 0.00
5:56 pm 17:56 Sunny 74 23.3 61 16.1 64 64 N 3 6 30.12 1020 N/A 0.00 0.00
6:56 pm 18:56 Sunny 73 22.8 60 15.6 64 64 Calm 30.11 1020 N/A 0.00 0.00
7:56 pm 19:56 Partly Cloudy with Light Rain 71 21.7 61 16.1 71 71 ESE 8 13 30.07 1018 N/A 0.00 0.03
9:56 pm 21:56 Cloudy 69 20.6 61 16.1 76 76 SSE 7 11 30.06 1018 N/A 0.00 0.03
10:56 pm 22:56 Cloudy 68 20 61 16.1 78 78 SSW 7 11 30.06 1018 N/A 0.00 0.00
11:56 pm 23:56 Cloudy with Light Rain 66 18.9 62 16.7 87 87 Calm 30.06 1018 N/A 0.00 0.03

Powered by AerisWeather